Other Public Products
Issued by NWS Grand Forks, ND

Home | Current Version | Previous Version | Graphics & Text | Print | Product List | Glossary On
Versions: 1 2 3 4 5 6 7 8 9 10 11 12 13 14 15 16 17 18 19 20 21 22 23 24 25 26 27 28 29 30 31 32 33 34 35 36 37 38 39 40 41 42 43 44 45 46 47 48 49 50
000
FPUS83 KFGF 160031
OPUFGF
PRAIRIE TO PINES WEATHER ROUNDUP
NATIONAL WEATHER SERVICE EASTERN NORTH DAKOTA/GRAND FORKS ND
700 PM CDT MON SEP 15 2014

 **SATELLITE DATA USED TO AUGMENT SKY COVER AT AUTOMATED STATIONS**
 *****  WEATHER ACROSS EASTERN NORTH DAKOTA  *****

CITY           SKY/WX    TMP DP  RH WIND       PRES   REMARKS
GRAND FORKS    PTCLDY    64  40  41 SW7       30.08F
6HR MIN TEMP:  62; 6HR MAX TEMP:  69;

GRAND FORKS AF CLEAR     63  41  44 W6        30.09F
GRAND CITY NWS   N/A     59 N/A N/A W5          N/A
BUXTON           N/A     64  38  37 S8          N/A
DEVILS LAKE    CLEAR     63  39  42 W6        30.08F
6HR MIN TEMP:  61; 6HR MAX TEMP:  66;

FARGO          CLEAR     61  38  42 SW8       30.14F
6HR MIN TEMP:  61; 6HR MAX TEMP:  66;

WAHPETON ARPT  CLEAR     55  36  47 W5        30.18F
$$

 *****  WEATHER ACROSS CENTRAL AND WESTERN NORTH DAKOTA  *****

CITY           SKY/WX    TMP DP  RH WIND       PRES   REMARKS
JAMESTOWN      CLEAR     61  38  42 SW6       30.14F
6HR MIN TEMP:  60; 6HR MAX TEMP:  64;

BISMARCK       CLEAR     66  35  31 S8        30.14F
6HR MIN TEMP:  64; 6HR MAX TEMP:  69;

MINOT          CLEAR     65  33  30 SW7       30.08F
6HR MIN TEMP:  64; 6HR MAX TEMP:  68;

MINOT AFB      CLEAR     65  35  32 W5        30.07F
6HR MIN TEMP:  64; 6HR MAX TEMP:  67;

GARRISON         N/A     64  39  39 SW6       30.10F
6HR MIN TEMP:  63; 6HR MAX TEMP:  67;

WILLISTON      SUNNY     67  31  26 SW7       30.08S
6HR MIN TEMP:  62; 6HR MAX TEMP:  68;

DICKINSON      CLEAR     64  37  36 SW7       30.10F
6HR MIN TEMP:  62; 6HR MAX TEMP:  66;

HETTINGER      CLEAR     63  37  38 S8        30.14F
6HR MIN TEMP:  60; 6HR MAX TEMP:  66;

$$

 *****  OTHER OBSERVATIONS NORTHEAST NORTH DAKOTA  *****

CITY           SKY/WX    TMP DP  RH WIND       PRES   REMARKS
WALHALLA         N/A     63  36  36 W3        30.06F
LANGDON        FAIR      59  36  41 W8        30.08S
CAVALIER       FAIR      59  39  47 W5        30.06S
GRAFTON        FAIR      63  39  42 W9        30.06F
CANDO          FAIR      59  37  44 W6        30.09F
FORT TOTTEN    NOT AVBL
ROLLA          FAIR      57  39  51 W6        30.09F
RUGBY          FAIR      59  41  51 W6        30.08F
 ***** THE ABOVE OBSERVATIONS ARE NON NWS ARE NOT QUALITY
        CONTROLLED AND MAY MIS-REPORT RAIN FOR SNOW...
$$

 *****  OTHER OBSERVATIONS SOUTHEAST NORTH DAKOTA *****

CITY           SKY/WX    TMP DP  RH WIND       PRES   REMARKS
COOPERSTOWN    NOT AVBL
VALLEY CITY    FAIR      57  39  51 SW8       30.15S
OAKES            N/A     59  41  51 S6        30.17F
GWINNER        CLEAR     57  41  54 S6        30.18F
SHEYENNE NWR     N/A     63  38  40 SW5       29.95S
BUFFALO          N/A     60  31  33 SW7         N/A
WYNDMERE         N/A     63  37  39 SW3         N/A
 ***** THE ABOVE OBSERVATIONS ARE NON NWS ARE NOT QUALITY
       CONTROLLED AND MAY MIS-REPORT RAIN FOR SNOW...
$$

  *****  WEATHER ACROSS NORTHERN MINNESOTA  *****

CITY           SKY/WX    TMP DP  RH WIND       PRES   REMARKS
FLAG ISLAND    CLEAR     57  39  51 SW6       30.04F
WARROAD        CLEAR     55  43  62 CALM      30.07F
ROSEAU         PTCLDY    57  43  58 CALM      30.06F
HALLOCK        CLEAR     63  39  42 W7        30.05S
THF RVR FALLS  CLEAR     59  39  47 SW7       30.09F
6HR MIN TEMP:  57; 6HR MAX TEMP:  64;

HALSTAD          N/A     57  36  45 S8          N/A
FOSSTON        PTCLDY    57  37  47 SW6       30.13F
BAUDETTE       CLEAR     56  37  49 CALM      30.09F
6HR MIN TEMP:  56; 6HR MAX TEMP:  61;

WASKISH        PTCLDY    54  43  66 CALM      30.10F
CROOKSTON      CLEAR     61  41  48 SW6       30.10F
$$
  *****  WEATHER ACROSS CENTRAL AND WEST MINNESOTA  *****

CITY           SKY/WX    TMP DP  RH WIND       PRES   REMARKS
BEMIDJI        PTCLDY    55  39  56 SW5       30.13F
PARK RAPIDS    CLEAR     56  35  45 W7        30.16F
6HR MIN TEMP:  56; 6HR MAX TEMP:  61;

WADENA         CLEAR     54  37  54 SW3       30.18F
DETROIT LAKES  CLEAR     55  37  50 SW3       30.17F
MOORHEAD       CLEAR     61  37  41 SW3       30.16S
FERGUS FALLS   CLEAR     55  36  47 W3        30.18F
ELBOW LAKE     FAIR      56  37  48 CALM      30.19F
6HR MIN TEMP:  57; 6HR MAX TEMP:  60;

MORRIS MN      CLEAR     59  36  41 CALM      30.20S
STAPLES        CLEAR     54  36  50 W3        30.18F
WHEATON        CLEAR     55  37  50 CALM      30.21F
$$
  *****  WEATHER ELSEWHERE ACROSS MINNESOTA  *****

CITY           SKY/WX    TMP DP  RH WIND       PRES   REMARKS
DULUTH         PTCLDY    53  36  52 W6        30.15S
6HR MIN TEMP:  53; 6HR MAX TEMP:  59;

INTRNTL FALLS  CLEAR     53  37  54 W5        30.09F
6HR MIN TEMP:  53; 6HR MAX TEMP:  61;

ELY            CLEAR     50  37  62 SW3       30.11F
CLOQUET        CLEAR     52  37  58 W3        30.16S
BRAINERD       CLEAR     55  35  47 CALM      30.18S
6HR MIN TEMP:  54; 6HR MAX TEMP:  60;

HIBBING        PTCLDY    54  36  50 W3        30.14F
6HR MIN TEMP:  53; 6HR MAX TEMP:  61;

ALEXANDRIA     CLEAR     56  37  49 NW5       30.21S
6HR MIN TEMP:  55; 6HR MAX TEMP:  61;

SAINT CLOUD    PTCLDY    59  38  45 NW5       30.19S
6HR MIN TEMP:  59; 6HR MAX TEMP:  64;

MINNEAPOLIS    PTCLDY    57  37  47 NW7       30.20R
6HR MIN TEMP:  57; 6HR MAX TEMP:  62;

$$

  *****  WEATHER ACROSS SOUTH DAKOTA  *****

CITY           SKY/WX    TMP DP  RH WIND       PRES   REMARKS
SIOUX FALLS    CLEAR     60  44  55 NW3       30.23S
6HR MIN TEMP:  56; 6HR MAX TEMP:  64;

BROOKINGS      NOT AVBL
WATERTOWN      CLEAR     57  35  43 CALM      30.21F
6HR MIN TEMP:  57; 6HR MAX TEMP:  61;

HURON          CLEAR     62  33  33 CALM      30.22S
6HR MIN TEMP:  61; 6HR MAX TEMP:  65;

SISSETON         N/A     61  38  42 NW3       30.19F
ABERDEEN       CLEAR     60  39  45 SW5       30.20S
6HR MIN TEMP:  59; 6HR MAX TEMP:  64;

MITCHELL       CLEAR     62  41  46 CALM      30.23F
PIERRE         CLEAR     62  39  42 SE5       30.18F
6HR MIN TEMP:  59; 6HR MAX TEMP:  66;

MOBRIDGE       CLEAR     63  39  41 S9        30.15F
RAPID CITY     SUNNY     66  44  45 S14       30.14F
6HR MIN TEMP:  59; 6HR MAX TEMP:  68;

$$

  *****  SOME WEATHER IN NEARBY STATES *****

CITY           SKY/WX    TMP DP  RH WIND       PRES   REMARKS
GLASGOW MT     SUNNY     68  36  30 CALM      30.04F
6HR MIN TEMP:  63; 6HR MAX TEMP:  69;

GREAT FALLS MT SUNNY     75  37  25 E6        30.02F
6HR MIN TEMP:  66; 6HR MAX TEMP:  78;

CHEYENNE WY    SUNNY     65  40  39 S14       30.27S
6HR MIN TEMP:  64; 6HR MAX TEMP:  70;

SCOTTSBLUFF NE SUNNY     70  44  39 SE16      30.18F
6HR MIN TEMP:  60; 6HR MAX TEMP:  73;

OMAHA NE       MOCLDY    60  46  59 N6        30.24S
6HR MIN TEMP:  60; 6HR MAX TEMP:  65;

DES MOINES IA  MOCLDY    60  46  59 N5        30.21R
6HR MIN TEMP:  58; 6HR MAX TEMP:  65;

DAVENPORT IA   MOCLDY    53  48  83 N6        30.18R
6HR MIN TEMP:  55; 6HR MAX TEMP:  67;

CHICAGO IL     MOCLDY    57  51  80 N10       30.11F
6HR MIN TEMP:  57; 6HR MAX TEMP:  62; 6HR PCP: TRACE;

EAU CLAIRE WI  CLEAR     55  39  54 NW5       30.17S
6HR MIN TEMP:  55; 6HR MAX TEMP:  63;

LA CROSSE WI   CLEAR     57  43  59 NW7       30.17R
6HR MIN TEMP:  55; 6HR MAX TEMP:  64;

$$

  *****  SOME NATIONAL WEATHER *****

CITY           SKY/WX    TMP DP  RH WIND       PRES   REMARKS



USA.gov is the U.S. government's official web portal to all federal, state and local government web resources and services.